Time,TemperatureF,DewpointF,PressureIn,WindDirection,WindDirectionDegrees,WindSpeedMPH,WindSpeedGustMPH,Humidity,HourlyPrecipIn,Conditions,Clouds,dailyrainin,SoftwareType,DateUTC
2013-04-15 00:03:00,55.0,35.0,30.11,NE,37,1.0,2.0,46,0.00,,,0.00,,2013-04-15 04:03:00,
2013-04-15 00:13:00,55.0,35.0,30.11,NE,37,1.0,2.0,46,0.00,,,0.00,,2013-04-15 04:13:00,
2013-04-15 00:23:00,56.0,34.0,30.12,East,86,0.0,3.0,44,0.00,,,0.00,,2013-04-15 04:23:00,
2013-04-15 00:33:00,56.0,34.0,30.12,East,81,0.0,2.0,44,0.00,,,0.00,,2013-04-15 04:33:00,
2013-04-15 00:43:00,56.0,34.0,30.12,East,81,0.0,2.0,44,0.00,,,0.00,,2013-04-15 04:43:00,
2013-04-15 00:52:00,55.0,35.0,30.12,East,81,0.0,1.0,46,0.00,,,0.00,,2013-04-15 04:52:00,
2013-04-15 01:03:00,55.0,35.0,30.13,East,99,0.0,1.0,46,0.00,,,0.00,,2013-04-15 05:03:00,
2013-04-15 01:13:00,55.0,35.0,30.13,East,99,0.0,1.0,46,0.00,,,0.00,,2013-04-15 05:13:00,
2013-04-15 01:23:00,55.0,35.0,30.13,East,99,0.0,1.0,47,0.00,,,0.00,,2013-04-15 05:23:00,
2013-04-15 01:33:00,55.0,35.0,30.13,East,99,0.0,1.0,46,0.00,,,0.00,,2013-04-15 05:33:00,
2013-04-15 01:42:00,55.0,35.0,30.13,East,99,0.0,1.0,46,0.00,,,0.00,,2013-04-15 05:42:00,
2013-04-15 01:52:00,55.0,35.0,30.14,East,99,0.0,1.0,47,0.00,,,0.00,,2013-04-15 05:52:00,
2013-04-15 02:02:00,55.0,36.0,30.15,East,99,0.0,2.0,48,0.00,,,0.00,,2013-04-15 06:02:00,
2013-04-15 02:12:00,55.0,36.0,30.15,East,99,0.0,2.0,48,0.00,,,0.00,,2013-04-15 06:12:00,
2013-04-15 02:23:00,54.0,36.0,30.16,East,99,0.0,1.0,50,0.00,,,0.00,,2013-04-15 06:23:00,
2013-04-15 02:33:00,53.0,36.0,30.16,East,97,0.0,1.0,53,0.00,,,0.00,,2013-04-15 06:33:00,
2013-04-15 02:42:00,53.0,36.0,30.16,East,97,0.0,1.0,53,0.00,,,0.00,,2013-04-15 06:42:00,
2013-04-15 02:52:00,53.0,37.0,30.16,ENE,69,0.0,2.0,54,0.00,,,0.00,,2013-04-15 06:52:00,
2013-04-15 03:03:00,52.0,37.0,30.17,ENE,59,1.0,3.0,56,0.00,,,0.00,,2013-04-15 07:03:00,
2013-04-15 03:41:00,52.0,37.0,30.17,ENE,59,1.0,3.0,56,0.00,,,0.00,,2013-04-15 07:41:00,
2013-04-15 03:43:00,51.0,37.0,30.16,NE,52,0.0,2.0,59,0.00,,,0.00,,2013-04-15 07:43:00,
2013-04-15 03:53:00,51.0,38.0,30.18,East,92,1.0,2.0,60,0.00,,,0.00,,2013-04-15 07:53:00,
2013-04-15 04:03:00,51.0,37.0,30.18,ENE,75,0.0,3.0,59,0.00,,,0.00,,2013-04-15 08:03:00,
2013-04-15 04:13:00,51.0,37.0,30.18,ENE,75,0.0,3.0,59,0.00,,,0.00,,2013-04-15 08:13:00,
2013-04-15 04:22:00,51.0,36.0,30.18,East,99,1.0,7.0,57,0.00,,,0.00,,2013-04-15 08:22:00,
2013-04-15 04:34:00,50.0,34.0,30.18,East,93,2.0,7.0,53,0.00,,,0.00,,2013-04-15 08:34:00,
2013-04-15 04:42:00,50.0,34.0,30.18,East,93,2.0,7.0,53,0.00,,,0.00,,2013-04-15 08:42:00,
2013-04-15 04:52:00,50.0,33.0,30.18,ENE,76,2.0,5.0,52,0.00,,,0.00,,2013-04-15 08:52:00,
2013-04-15 05:03:00,50.0,33.0,30.19,ESE,118,2.0,8.0,52,0.00,,,0.00,,2013-04-15 09:03:00,
2013-04-15 05:12:00,50.0,33.0,30.19,ESE,118,2.0,8.0,52,0.00,,,0.00,,2013-04-15 09:12:00,
2013-04-15 05:23:00,50.0,33.0,30.19,ESE,109,2.0,8.0,52,0.00,,,0.00,,2013-04-15 09:23:00,
2013-04-15 05:33:00,50.0,34.0,30.21,ESE,103,2.0,8.0,53,0.00,,,0.00,,2013-04-15 09:33:00,
2013-04-15 05:43:00,50.0,34.0,30.21,ESE,103,2.0,8.0,53,0.00,,,0.00,,2013-04-15 09:43:00,
2013-04-15 05:53:00,49.0,33.0,30.20,East,86,2.0,8.0,53,0.00,,,0.00,,2013-04-15 09:53:00,
2013-04-15 06:03:00,49.0,33.0,30.21,ESE,108,2.0,8.0,54,0.00,,,0.00,,2013-04-15 10:03:00,
2013-04-15 06:13:00,49.0,33.0,30.21,ESE,108,2.0,8.0,54,0.00,,,0.00,,2013-04-15 10:13:00,
2013-04-15 06:23:00,49.0,33.0,30.21,ESE,104,2.0,7.0,54,0.00,,,0.00,,2013-04-15 10:23:00,
2013-04-15 06:33:00,49.0,33.0,30.21,East,101,2.0,8.0,54,0.00,,,0.00,,2013-04-15 10:33:00,
2013-04-15 06:42:00,49.0,33.0,30.21,East,101,2.0,8.0,54,0.00,,,0.00,,2013-04-15 10:42:00,
2013-04-15 06:52:00,49.0,34.0,30.21,East,81,2.0,6.0,55,0.00,,,0.00,,2013-04-15 10:52:00,
2013-04-15 07:13:00,49.0,34.0,30.22,East,93,1.0,8.0,56,0.00,,,0.00,,2013-04-15 11:13:00,
2013-04-15 07:23:00,49.0,34.0,30.23,ESE,119,2.0,5.0,57,0.00,,,0.00,,2013-04-15 11:23:00,
2013-04-15 07:32:00,49.0,34.0,30.24,East,87,2.0,7.0,56,0.00,,,0.00,,2013-04-15 11:32:00,
2013-04-15 07:43:00,49.0,34.0,30.24,East,87,2.0,7.0,56,0.00,,,0.00,,2013-04-15 11:43:00,
2013-04-15 07:53:00,49.0,34.0,30.24,ESE,104,2.0,8.0,56,0.00,,,0.00,,2013-04-15 11:53:00,
2013-04-15 08:05:00,49.0,36.0,30.25,ESE,107,2.0,7.0,61,0.00,,,0.00,,2013-04-15 12:05:00,
2013-04-15 08:14:00,49.0,36.0,30.25,ESE,107,2.0,7.0,61,0.00,,,0.00,,2013-04-15 12:14:00,
2013-04-15 08:23:00,49.0,37.0,30.27,ESE,111,1.0,3.0,63,0.00,,,0.00,,2013-04-15 12:23:00,
2013-04-15 08:34:00,49.0,37.0,30.26,ESE,108,1.0,9.0,64,0.00,,,0.00,,2013-04-15 12:34:00,
2013-04-15 08:43:00,49.0,37.0,30.26,ESE,108,1.0,9.0,64,0.00,,,0.00,,2013-04-15 12:43:00,
2013-04-15 08:53:00,49.0,37.0,30.27,ENE,75,2.0,6.0,63,0.00,,,0.00,,2013-04-15 12:53:00,
2013-04-15 09:05:00,49.0,37.0,30.27,East,92,1.0,5.0,64,0.00,,,0.00,,2013-04-15 13:05:00,
2013-04-15 09:13:00,49.0,37.0,30.27,East,92,1.0,5.0,64,0.00,,,0.00,,2013-04-15 13:13:00,
2013-04-15 09:23:00,49.0,37.0,30.27,East,94,1.0,6.0,62,0.00,,,0.00,,2013-04-15 13:23:00,
2013-04-15 09:34:00,49.0,37.0,30.26,ENE,67,1.0,6.0,64,0.00,,,0.00,,2013-04-15 13:34:00,
2013-04-15 09:43:00,49.0,37.0,30.26,ENE,67,1.0,6.0,64,0.00,,,0.00,,2013-04-15 13:43:00,
2013-04-15 09:53:00,50.0,38.0,30.25,ENE,64,1.0,3.0,64,0.00,,,0.00,,2013-04-15 13:53:00,
2013-04-15 10:05:00,51.0,39.0,30.25,East,92,1.0,5.0,64,0.00,,,0.00,,2013-04-15 14:05:00,
2013-04-15 10:13:00,51.0,39.0,30.25,East,92,1.0,5.0,64,0.00,,,0.00,,2013-04-15 14:13:00,
2013-04-15 10:23:00,51.0,39.0,30.25,ENE,77,1.0,3.0,64,0.00,,,0.00,,2013-04-15 14:23:00,
2013-04-15 10:34:00,53.0,41.0,30.25,East,82,1.0,7.0,63,0.00,,,0.00,,2013-04-15 14:34:00,
2013-04-15 10:44:00,53.0,41.0,30.25,East,82,1.0,7.0,63,0.00,,,0.00,,2013-04-15 14:44:00,
2013-04-15 10:54:00,53.0,41.0,30.26,NNE,24,2.0,3.0,63,0.00,,,0.00,,2013-04-15 14:54:00,
2013-04-15 11:04:00,53.0,41.0,30.25,East,98,1.0,3.0,63,0.00,,,0.00,,2013-04-15 15:04:00,
2013-04-15 11:13:00,53.0,41.0,30.25,East,98,1.0,3.0,63,0.00,,,0.00,,2013-04-15 15:13:00,
2013-04-15 11:24:00,53.0,41.0,30.25,East,101,2.0,5.0,63,0.00,,,0.00,,2013-04-15 15:24:00,
2013-04-15 11:35:00,54.0,41.0,30.25,ESE,108,2.0,8.0,62,0.00,,,0.00,,2013-04-15 15:35:00,
2013-04-15 11:44:00,54.0,41.0,30.25,ESE,108,2.0,8.0,62,0.00,,,0.00,,2013-04-15 15:44:00,
2013-04-15 11:54:00,54.0,42.0,30.25,ESE,114,2.0,5.0,63,0.00,,,0.00,,2013-04-15 15:54:00,
2013-04-15 12:05:00,55.0,43.0,30.26,SE,143,5.0,8.0,63,0.00,,,0.00,,2013-04-15 16:05:00,
2013-04-15 12:14:00,55.0,43.0,30.26,SE,143,5.0,8.0,63,0.00,,,0.00,,2013-04-15 16:14:00,
2013-04-15 12:25:00,55.0,42.0,30.26,SE,132,5.0,8.0,61,0.00,,,0.00,,2013-04-15 16:25:00,
2013-04-15 12:34:00,56.0,43.0,30.26,SE,124,5.0,9.0,62,0.00,,,0.00,,2013-04-15 16:34:00,
2013-04-15 12:44:00,56.0,43.0,30.26,SE,124,5.0,9.0,62,0.00,,,0.00,,2013-04-15 16:44:00,
2013-04-15 12:53:00,56.0,44.0,30.26,East,98,3.0,8.0,65,0.00,,,0.00,,2013-04-15 16:53:00,
2013-04-15 13:04:00,57.0,44.0,30.26,East,98,3.0,12.0,61,0.00,,,0.00,,2013-04-15 17:04:00,
2013-04-15 13:15:00,57.0,44.0,30.26,East,98,3.0,12.0,61,0.00,,,0.00,,2013-04-15 17:15:00,
2013-04-15 13:22:00,58.0,45.0,30.25,East,101,3.0,8.0,61,0.00,,,0.00,,2013-04-15 17:22:00,
2013-04-15 13:33:00,58.0,44.0,30.24,ESE,114,2.0,10.0,59,0.00,,,0.00,,2013-04-15 17:33:00,
2013-04-15 13:43:00,58.0,44.0,30.24,ESE,114,2.0,10.0,59,0.00,,,0.00,,2013-04-15 17:43:00,
2013-04-15 13:52:00,58.0,44.0,30.24,SE,138,4.0,9.0,59,0.00,,,0.00,,2013-04-15 17:52:00,
2013-04-15 14:03:00,59.0,44.0,30.24,East,93,3.0,9.0,58,0.00,,,0.00,,2013-04-15 18:03:00,
2013-04-15 14:13:00,59.0,44.0,30.24,East,93,3.0,9.0,58,0.00,,,0.00,,2013-04-15 18:13:00,
2013-04-15 14:24:00,61.0,46.0,30.24,ESE,117,3.0,9.0,58,0.00,,,0.00,,2013-04-15 18:24:00,
2013-04-15 14:33:00,62.0,47.0,30.24,East,91,3.0,8.0,57,0.00,,,0.00,,2013-04-15 18:33:00,
2013-04-15 14:42:00,62.0,47.0,30.24,East,91,3.0,8.0,57,0.00,,,0.00,,2013-04-15 18:42:00,
2013-04-15 14:52:00,62.0,45.0,30.24,NNE,26,4.0,6.0,53,0.00,,,0.00,,2013-04-15 18:52:00,
2013-04-15 15:02:00,62.0,44.0,30.24,East,85,3.0,8.0,52,0.00,,,0.00,,2013-04-15 19:02:00,
2013-04-15 15:12:00,62.0,44.0,30.24,East,85,3.0,8.0,52,0.00,,,0.00,,2013-04-15 19:12:00,
2013-04-15 15:22:00,62.0,46.0,30.24,SE,143,5.0,9.0,55,0.00,,,0.00,,2013-04-15 19:22:00,
2013-04-15 15:38:00,61.0,45.0,30.24,SE,128,5.0,9.0,56,0.00,,,0.00,,2013-04-15 19:38:00,
2013-04-15 15:59:00,60.0,45.0,30.24,East,88,5.0,12.0,57,0.00,,,0.00,,2013-04-15 19:59:00,
2013-04-15 16:02:00,60.0,46.0,30.23,East,99,3.0,9.0,59,0.00,,,0.00,,2013-04-15 20:02:00,
2013-04-15 16:11:00,60.0,46.0,30.23,East,99,3.0,9.0,59,0.00,,,0.00,,2013-04-15 20:11:00,
2013-04-15 16:22:00,60.0,46.0,30.23,ESE,112,4.0,8.0,60,0.00,,,0.00,,2013-04-15 20:22:00,
2013-04-15 16:32:00,60.0,46.0,30.23,ESE,114,5.0,12.0,59,0.00,,,0.00,,2013-04-15 20:32:00,
2013-04-15 16:42:00,60.0,46.0,30.23,ESE,114,5.0,12.0,59,0.00,,,0.00,,2013-04-15 20:42:00,
2013-04-15 16:52:00,59.0,46.0,30.23,ESE,112,4.0,10.0,61,0.00,,,0.00,,2013-04-15 20:52:00,
2013-04-15 17:02:00,58.0,46.0,30.24,SE,138,5.0,8.0,64,0.00,,,0.00,,2013-04-15 21:02:00,
2013-04-15 17:12:00,58.0,46.0,30.24,SE,138,5.0,8.0,64,0.00,,,0.00,,2013-04-15 21:12:00,
2013-04-15 17:22:00,58.0,46.0,30.24,ESE,114,3.0,10.0,64,0.00,,,0.00,,2013-04-15 21:22:00,
2013-04-15 17:33:00,58.0,47.0,30.24,SE,124,2.0,6.0,66,0.00,,,0.00,,2013-04-15 21:33:00,
2013-04-15 17:43:00,58.0,47.0,30.24,SE,124,2.0,6.0,66,0.00,,,0.00,,2013-04-15 21:43:00,
2013-04-15 17:53:00,57.0,46.0,30.23,SE,136,3.0,7.0,67,0.00,,,0.00,,2013-04-15 21:53:00,
2013-04-15 18:02:00,57.0,47.0,30.24,ESE,106,3.0,8.0,68,0.00,,,0.00,,2013-04-15 22:02:00,
2013-04-15 18:13:00,57.0,47.0,30.24,ESE,106,3.0,8.0,68,0.00,,,0.00,,2013-04-15 22:13:00,
2013-04-15 18:23:00,57.0,47.0,30.24,ESE,111,3.0,8.0,68,0.00,,,0.00,,2013-04-15 22:23:00,
2013-04-15 18:33:00,57.0,47.0,30.25,SE,124,3.0,7.0,68,0.00,,,0.00,,2013-04-15 22:33:00,
2013-04-15 18:42:00,57.0,47.0,30.25,SE,124,3.0,7.0,68,0.00,,,0.00,,2013-04-15 22:42:00,
2013-04-15 18:52:00,57.0,47.0,30.25,SE,134,3.0,8.0,68,0.00,,,0.00,,2013-04-15 22:52:00,
2013-04-15 19:02:00,56.0,46.0,30.25,South,170,5.0,9.0,68,0.00,,,0.00,,2013-04-15 23:02:00,
2013-04-15 19:12:00,56.0,46.0,30.25,South,170,5.0,9.0,68,0.00,,,0.00,,2013-04-15 23:12:00,
2013-04-15 19:22:00,55.0,46.0,30.26,SSE,148,4.0,8.0,71,0.00,,,0.00,,2013-04-15 23:22:00,
2013-04-15 19:32:00,54.0,45.0,30.26,SE,143,2.0,6.0,72,0.00,,,0.00,,2013-04-15 23:32:00,
2013-04-15 19:42:00,54.0,45.0,30.26,SE,143,2.0,6.0,72,0.00,,,0.00,,2013-04-15 23:42:00,
2013-04-15 19:52:00,54.0,45.0,30.27,SE,134,3.0,6.0,72,0.00,,,0.00,,2013-04-15 23:52:00,
2013-04-15 20:03:00,54.0,46.0,30.27,SE,139,2.0,3.0,74,0.00,,,0.00,,2013-04-16 00:03:00,
2013-04-15 20:12:00,54.0,46.0,30.27,SE,139,2.0,3.0,74,0.00,,,0.00,,2013-04-16 00:12:00,
2013-04-15 20:22:00,54.0,46.0,30.27,SE,138,3.0,7.0,74,0.00,,,0.00,,2013-04-16 00:22:00,
2013-04-15 20:32:00,54.0,46.0,30.27,ESE,108,3.0,7.0,75,0.00,,,0.00,,2013-04-16 00:32:00,
2013-04-15 20:42:00,54.0,46.0,30.27,ESE,108,3.0,7.0,75,0.00,,,0.00,,2013-04-16 00:42:00,
2013-04-15 20:52:00,53.0,46.0,30.27,ESE,108,2.0,3.0,76,0.00,,,0.00,,2013-04-16 00:52:00,
2013-04-15 21:02:00,53.0,46.0,30.27,ESE,121,2.0,6.0,76,0.00,,,0.00,,2013-04-16 01:02:00,
2013-04-15 21:12:00,53.0,45.0,30.27,ESE,112,3.0,8.0,75,0.00,,,0.00,,2013-04-16 01:12:00,
2013-04-15 21:22:00,53.0,45.0,30.27,ESE,112,3.0,8.0,75,0.00,,,0.00,,2013-04-16 01:22:00,
2013-04-15 21:32:00,53.0,45.0,30.28,ESE,104,3.0,7.0,74,0.00,,,0.00,,2013-04-16 01:32:00,
2013-04-15 21:42:00,53.0,45.0,30.28,ESE,104,3.0,7.0,74,0.00,,,0.00,,2013-04-16 01:42:00,
2013-04-15 21:52:00,53.0,45.0,30.28,SE,130,3.0,7.0,74,0.00,,,0.00,,2013-04-16 01:52:00,
2013-04-15 22:02:00,53.0,45.0,30.29,ESE,121,2.0,7.0,75,0.00,,,0.00,,2013-04-16 02:02:00,
2013-04-15 22:12:00,53.0,45.0,30.29,ESE,121,2.0,7.0,75,0.00,,,0.00,,2013-04-16 02:12:00,
2013-04-15 22:22:00,53.0,45.0,30.29,ESE,102,3.0,7.0,75,0.00,,,0.00,,2013-04-16 02:22:00,
2013-04-15 22:32:00,53.0,46.0,30.29,ESE,110,2.0,5.0,76,0.00,,,0.00,,2013-04-16 02:32:00,
2013-04-15 22:42:00,53.0,46.0,30.29,ESE,110,2.0,5.0,76,0.00,,,0.00,,2013-04-16 02:42:00,
2013-04-15 22:52:00,53.0,46.0,30.29,East,97,2.0,6.0,76,0.00,,,0.00,,2013-04-16 02:52:00,
2013-04-15 23:02:00,53.0,46.0,30.30,ESE,116,1.0,7.0,76,0.00,,,0.00,,2013-04-16 03:02:00,
2013-04-15 23:12:00,53.0,46.0,30.30,ESE,116,1.0,7.0,76,0.00,,,0.00,,2013-04-16 03:12:00,
2013-04-15 23:22:00,53.0,46.0,30.29,East,101,2.0,7.0,77,0.00,,,0.00,,2013-04-16 03:22:00,
2013-04-15 23:33:00,52.0,45.0,30.29,ESE,116,1.0,3.0,77,0.00,,,0.00,,2013-04-16 03:33:00,
2013-04-15 23:43:00,52.0,45.0,30.29,ESE,116,1.0,3.0,77,0.00,,,0.00,,2013-04-16 03:43:00,
2013-04-15 23:52:00,52.0,45.0,30.29,ESE,120,1.0,3.0,78,0.00,,,0.00,,2013-04-16 03:52:00,